Weather in Jacmel

Haiti     18°13′57″N   72°32′18″W
temp.,
°C
wind,
m/s
gust,
m/s
humid.,
%
clouds,
%
prec.,
mm/h
press.,
hPa
HPBL,
m
8 may, sat
sat823:00+23ene11825 1.6 101793
02:00+22e128214 3.5 1016189
05:00+22ene117912 0.1 1016278
08:00+24nw227477 0.3 1018308
11:00+26sse326714 1.2 1018727
14:00+26sse336449 1.8 1016875
17:00+25sse227583 0.4 1015361
20:00+22nnw11875 5.1 101730
9 may, sun
sun923:00+22n118560 5.4 101845
02:00+22ese128544 9.1 1017243
05:00+22n1186100 2.7 1016178
08:00+23nnw117876 3.0 1018183
11:00+26s216619 0.0 1018820
14:00+27sse336527 0.0 1016877
17:00+26sse33691 0.9 1015706
20:00+24s12841 2.0 1017167
10 may, mon
mon1023:00+23n11820 0.5 101878
02:00+22ne11800 0.5 101690
05:00+22nne21800 0.0 101699
08:00+24ene11730 0.0 1017308
11:00+27se446332 0.0 1017967
14:00+27se576571 0.2 1016986
17:00+26se456843 0.6 1015750
20:00+25nne117225 0.9 1017104
11 may, tue
tue1123:00+24nnw1173100 0.1 1017109
02:00+23nnw2274100 0.1 101661
05:00+23nne117383 0.0 101558
08:00+25ne1168100 0.0 1017169
11:00+28sse245399 0.0 1017933
14:00+28sse3459100 0.1 1016778
17:00+27sse3365100 0.3 1015336
20:00+25nnw0181100 0.4 1016114
12 may, wed
wed1223:00+24ne1178100 1.4 101763
02:00+24nw0175100 1.4 101697
05:00+23nw1176100 0.0 1016118
08:00+25n2267100 0.0 1017138
11:00+28sw015292 0.0 1017810
14:00+28sse4362100 0.1 1016885
17:00+26se2277100 1.3 1015244
20:00+25nne1279100 1.5 101663